| time (UTC) | temp F | wind direction | speed MPH | gust MPH | rain 1hr in | rain 24hr in | rain mn in | humidity % | barometer mb |
| 20260903200432 | 67 | 39 | 0.0 | 1.0 | 0.00 | 0.00 | 0.00 | 68 | 1012.0 |
| 20260903195417 | 67 | 140 | 0.0 | 1.0 | 0.00 | 0.00 | 0.00 | 68 | 1012.0 |
| 20260903194423 | 67 | 86 | 0.0 | 0.0 | 0.00 | 0.00 | 0.00 | 68 | 1012.2 |
| 20260903192238 | 68 | 316 | 0.0 | 2.0 | 0.00 | 0.00 | 0.00 | 67 | 1012.6 |
| 20260903191223 | 68 | 111 | 0.0 | 0.0 | 0.00 | 0.00 | 0.00 | 67 | 1012.9 |
| 20260903185135 | 69 | 153 | 0.0 | 3.0 | 0.00 | 0.00 | 0.00 | 66 | 1013.2 |
| 20260903184123 | 69 | 284 | 0.0 | 2.0 | 0.00 | 0.00 | 0.00 | 66 | 1012.8 |
| 20260903183048 | 69 | 74 | 0.0 | 3.0 | 0.00 | 0.00 | 0.00 | 66 | 1012.7 |
| 20260903182111 | 69 | 285 | 0.0 | 4.0 | 0.00 | 0.00 | 0.00 | 66 | 1013.0 |
| 20260903181121 | 70 | 263 | 0.0 | 4.0 | 0.00 | 0.00 | 0.00 | 65 | 1013.2 |
| 20260903174912 | 70 | 98 | 0.0 | 1.0 | 0.00 | 0.00 | 0.00 | 64 | 1013.3 |
| 20260903173930 | 71 | 295 | 0.0 | 4.0 | 0.00 | 0.00 | 0.00 | 64 | 1013.2 |
| 20260903172916 | 71 | 200 | 0.0 | 4.0 | 0.00 | 0.00 | 0.00 | 63 | 1013.0 |
| 20260903171934 | 71 | 275 | 1.0 | 5.0 | 0.00 | 0.00 | 0.00 | 63 | 1013.3 |
| 20260903170907 | 71 | 302 | 0.0 | 6.0 | 0.00 | 0.00 | 0.00 | 61 | 1013.1 |
| 20260903165927 | 72 | 250 | 0.0 | 7.0 | 0.00 | 0.00 | 0.00 | 60 | 1013.1 |
| 20260903164910 | 72 | 319 | 1.0 | 7.0 | 0.00 | 0.00 | 0.00 | 60 | 1013.2 |
| 20260903163911 | 72 | 316 | 1.0 | 7.0 | 0.00 | 0.00 | 0.00 | 58 | 1013.5 |
| 20260903162904 | 73 | 269 | 0.0 | 5.0 | 0.00 | 0.00 | 0.00 | 57 | 1013.9 |
| 20260903161900 | 73 | 260 | 1.0 | 7.0 | 0.00 | 0.00 | 0.00 | 59 | 1013.9 |
| 20260903160859 | 73 | 281 | 0.0 | 7.0 | 0.00 | 0.00 | 0.00 | 60 | 1013.8 |
| 20260903155858 | 73 | 272 | 1.0 | 10.0 | 0.00 | 0.00 | 0.00 | 59 | 1014.0 |
| 20260903154919 | 74 | 190 | 2.0 | 10.0 | 0.00 | 0.00 | 0.00 | 58 | 1013.9 |
| 20260903152815 | 73 | 217 | 2.0 | 8.0 | 0.00 | 0.00 | 0.00 | 58 | 1014.0 |
| 20260903151748 | 73 | 233 | 2.0 | 8.0 | 0.00 | 0.00 | 0.00 | 57 | 1014.1 |
| 20260903150741 | 73 | 296 | 1.0 | 7.0 | 0.00 | 0.00 | 0.00 | 58 | 1014.0 |
| 20260903145724 | 73 | 255 | 0.0 | 9.0 | 0.00 | 0.00 | 0.00 | 60 | 1014.0 |
| 20260903144721 | 73 | 254 | 1.0 | 9.0 | 0.00 | 0.00 | 0.00 | 60 | 1013.9 |
| 20260903143700 | 73 | 283 | 0.0 | 5.0 | 0.00 | 0.00 | 0.00 | 59 | 1013.8 |
| 20260903142711 | 73 | 250 | 1.0 | 0.0 | 0.00 | 0.00 | 0.00 | 62 | 1013.7 |
| 20260903140614 | 73 | 229 | 0.0 | 6.0 | 0.00 | 0.01 | 0.00 | 62 | 1013.8 |
| 20260903135615 | 73 | 317 | 0.0 | 6.0 | 0.00 | 0.01 | 0.00 | 62 | 1014.0 |
| 20260903134545 | 73 | 272 | 0.0 | 6.0 | 0.00 | 0.01 | 0.00 | 61 | 1014.3 |
| 20260903133547 | 73 | 274 | 0.0 | 4.0 | 0.00 | 0.01 | 0.00 | 62 | 1014.1 |
| 20260903131424 | 72 | 356 | 0.0 | 7.0 | 0.00 | 0.01 | 0.00 | 61 | 1014.3 |
| 20260903130355 | 72 | 60 | 0.0 | 7.0 | 0.00 | 0.01 | 0.00 | 61 | 1014.4 |
| 20260903125417 | 72 | 8 | 0.0 | 4.0 | 0.00 | 0.01 | 0.00 | 60 | 1014.6 |
| 20260903124359 | 73 | 91 | 0.0 | 5.0 | 0.00 | 0.01 | 0.00 | 59 | 1014.5 |
| 20260903122135 | 71 | 257 | 1.0 | 7.0 | 0.00 | 0.01 | 0.00 | 64 | 1014.8 |
| 20260903121118 | 71 | 273 | 0.0 | 7.0 | 0.00 | 0.01 | 0.00 | 66 | 1015.0 |
| 20260903120117 | 70 | 285 | 0.0 | 4.0 | 0.00 | 0.01 | 0.00 | 66 | 1015.0 |
| 20260903115103 | 70 | 297 | 1.0 | 6.0 | 0.00 | 0.01 | 0.00 | 66 | 1014.9 |
| 20260903114055 | 70 | 253 | 0.0 | 7.0 | 0.00 | 0.01 | 0.00 | 66 | 1014.8 |
| 20260903113045 | 69 | 129 | 1.0 | 7.0 | 0.00 | 0.02 | 0.00 | 65 | 1014.9 |
| 20260903112050 | 69 | 264 | 0.0 | 7.0 | 0.00 | 0.02 | 0.00 | 65 | 1014.9 |
| 20260903111113 | 69 | 295 | 1.0 | 7.0 | 0.00 | 0.02 | 0.00 | 65 | 1015.0 |
| 20260903110055 | 69 | 137 | 1.0 | 5.0 | 0.00 | 0.02 | 0.00 | 67 | 1014.9 |
| 20260903105117 | 69 | 277 | 1.0 | 9.0 | 0.00 | 0.02 | 0.00 | 67 | 1014.9 |
| 20260903102907 | 68 | 275 | 0.0 | 4.0 | 0.00 | 0.02 | 0.00 | 69 | 1014.6 |
| 20260903100746 | 68 | 308 | 1.0 | 10.0 | 0.00 | 0.02 | 0.00 | 71 | 1014.7 |
| 20260903093419 | 66 | 333 | 0.0 | 5.0 | 0.00 | 0.02 | 0.00 | 75 | 1014.6 |
| 20260903092346 | 66 | 297 | 0.0 | 7.0 | 0.00 | 0.02 | 0.00 | 76 | 1014.5 |
| 20260903091340 | 66 | 280 | 0.0 | 3.0 | 0.00 | 0.02 | 0.00 | 76 | 1014.4 |
| 20260903085255 | 65 | 225 | 1.0 | 6.0 | 0.00 | 0.02 | 0.00 | 76 | 1014.4 |
| 20260903084239 | 65 | 299 | 1.0 | 5.0 | 0.00 | 0.02 | 0.00 | 76 | 1014.4 |
| 20260903083207 | 65 | 260 | 0.0 | 3.0 | 0.00 | 0.02 | 0.00 | 76 | 1014.3 |
| 20260903082140 | 65 | 251 | 0.0 | 1.0 | 0.00 | 0.02 | 0.00 | 77 | 1014.2 |
| 20260903081152 | 65 | 217 | 0.0 | 3.0 | 0.00 | 0.02 | 0.00 | 76 | 1014.3 |
| 20260903080214 | 65 | 233 | 0.0 | 3.0 | 0.00 | 0.02 | 0.00 | 76 | 1014.1 |
| 20260903075214 | 65 | 275 | 0.0 | 5.0 | 0.00 | 0.02 | 0.00 | 77 | 1014.2 |
| 20260903074204 | 65 | 290 | 0.0 | 5.0 | 0.00 | 0.02 | 0.00 | 77 | 1014.1 |
| 20260903072055 | 65 | 248 | 0.0 | 5.0 | 0.00 | 0.02 | 0.00 | 78 | 1013.7 |
| 20260903071104 | 65 | 288 | 0.0 | 3.0 | 0.00 | 0.02 | 0.00 | 79 | 1013.8 |
| 20260903064947 | 64 | 80 | 0.0 | 1.0 | 0.00 | 0.02 | 0.00 | 80 | 1013.2 |
| 20260903063912 | 64 | 295 | 0.0 | 1.0 | 0.00 | 0.02 | 0.00 | 81 | 1013.2 |
| 20260903062925 | 64 | 110 | 0.0 | 0.0 | 0.00 | 0.02 | 0.00 | 82 | 1013.0 |
| 20260903061940 | 64 | 251 | 0.0 | 0.0 | 0.00 | 0.02 | 0.00 | 82 | 1013.0 |
| 20260903060927 | 64 | 53 | 0.0 | 0.0 | 0.00 | 0.02 | 0.00 | 83 | 1013.0 |
| 20260903055949 | 64 | 215 | 0.0 | 2.0 | 0.00 | 0.02 | 0.00 | 84 | 1012.8 |
| 20260903054947 | 63 | 275 | 0.0 | 0.0 | 0.00 | 0.02 | 0.00 | 85 | 1012.6 |
| 20260903054002 | 63 | 266 | 0.0 | 0.0 | 0.00 | 0.02 | 0.00 | 85 | 1012.6 |
| 20260903051907 | 63 | 342 | 0.0 | 0.0 | 0.00 | 0.02 | 0.00 | 85 | 1012.6 |
| 20260903050917 | 63 | 334 | 0.0 | 0.0 | 0.00 | 0.02 | 0.00 | 85 | 1012.7 |
| 20260903045903 | 64 | 80 | 0.0 | 1.0 | 0.00 | 0.02 | 0.00 | 85 | 1012.6 |
| 20260903044918 | 64 | 122 | 0.0 | 0.0 | 0.00 | 0.02 | 0.00 | 85 | 1012.6 |
| 20260903043903 | 64 | 159 | 0.0 | 0.0 | 0.00 | 0.02 | 0.00 | 85 | 1012.3 |
| 20260903042925 | 64 | 62 | 0.0 | 0.0 | 0.00 | 0.02 | 0.00 | 85 | 1012.3 |
| 20260903040758 | 64 | 300 | 0.0 | 0.0 | 0.00 | 0.02 | 0.00 | 84 | 1012.3 |
| 20260903035737 | 64 | 39 | 0.0 | 0.0 | 0.00 | 0.02 | 0.00 | 84 | 1012.3 |
| 20260903034733 | 64 | 268 | 0.0 | 1.0 | 0.00 | 0.02 | 0.00 | 85 | 1012.3 |
| 20260903033746 | 64 | 19 | 0.0 | 0.0 | 0.00 | 0.02 | 0.00 | 85 | 1012.1 |
| 20260903032751 | 64 | 40 | 0.0 | 4.0 | 0.00 | 0.02 | 0.00 | 85 | 1012.0 |
| 20260903031751 | 64 | 341 | 0.0 | 3.0 | 0.00 | 0.02 | 0.00 | 85 | 1012.0 |
| 20260903030815 | 64 | 245 | 0.0 | 3.0 | 0.00 | 0.02 | 0.00 | 86 | 1012.1 |
| 20260903025815 | 64 | 4 | 0.0 | 0.0 | 0.00 | 0.02 | 0.00 | 87 | 1012.1 |
| 20260903024803 | 64 | 293 | 0.0 | 0.0 | 0.00 | 0.02 | 0.00 | 87 | 1012.3 |
| 20260903023811 | 64 | 355 | 0.0 | 0.0 | 0.00 | 0.02 | 0.00 | 87 | 1012.2 |
| 20260903022752 | 64 | 68 | 0.0 | 0.0 | 0.00 | 0.02 | 0.00 | 87 | 1012.3 |
| 20260903021815 | 64 | 70 | 0.0 | 3.0 | 0.00 | 0.02 | 0.00 | 87 | 1012.6 |
| 20260903020755 | 64 | 24 | 0.0 | 0.0 | 0.00 | 0.02 | 0.00 | 87 | 1012.5 |
| 20260903015800 | 64 | 341 | 0.0 | 0.0 | 0.00 | 0.02 | 0.00 | 87 | 1012.3 |
| 20260903014806 | 64 | 304 | 0.0 | 1.0 | 0.00 | 0.02 | 0.00 | 88 | 1012.4 |
| 20260903012642 | 64 | 84 | 0.0 | 0.0 | 0.00 | 0.02 | 0.00 | 87 | 1012.1 |
| 20260903011625 | 64 | 84 | 0.0 | 0.0 | 0.00 | 0.02 | 0.00 | 87 | 1012.2 |
| 20260903010559 | 64 | 44 | 0.0 | 0.0 | 0.00 | 0.02 | 0.00 | 87 | 1012.3 |
| 20260903005528 | 64 | 34 | 0.0 | 2.0 | 0.00 | 0.02 | 0.00 | 87 | 1012.4 |
| 20260903004511 | 64 | 77 | 0.0 | 3.0 | 0.00 | 0.02 | 0.00 | 87 | 1012.5 |
| 20260903003525 | 64 | 351 | 0.0 | 2.0 | 0.00 | 0.02 | 0.00 | 86 | 1012.8 |
| 20260903002507 | 64 | 68 | 0.0 | 3.0 | 0.00 | 0.02 | 0.00 | 86 | 1012.7 |
| 20260903001532 | 64 | 88 | 0.0 | 0.0 | 0.00 | 0.02 | 0.00 | 86 | 1012.8 |
| 20260903000503 | 64 | 90 | 0.0 | 4.0 | 0.00 | 0.02 | 0.00 | 87 | 1012.7 |
| 20260902234307 | 63 | 47 | 0.0 | 0.0 | 0.00 | 0.02 | 0.00 | 88 | 1012.8 |
| 20260902233307 | 63 | 288 | 0.0 | 0.0 | 0.00 | 0.02 | 0.00 | 88 | 1012.8 |
| 20260902232257 | 63 | 67 | 0.0 | 0.0 | 0.00 | 0.02 | 0.00 | 88 | 1012.7 |
| 20260902230121 | 63 | 101 | 0.0 | 0.0 | 0.00 | 0.02 | 0.00 | 87 | 1012.8 |
| 20260902225119 | 63 | 21 | 0.0 | 0.0 | 0.00 | 0.02 | 0.02 | 86 | 1012.9 |
| 20260902224119 | 64 | 21 | 0.0 | 0.0 | 0.00 | 0.02 | 0.02 | 86 | 1013.1 |
| 20260902223121 | 64 | 257 | 0.0 | 2.0 | 0.00 | 0.02 | 0.02 | 86 | 1013.0 |
| 20260902222138 | 64 | 302 | 0.0 | 1.0 | 0.00 | 0.02 | 0.02 | 86 | 1013.1 |
| 20260902221142 | 64 | 329 | 0.0 | 1.0 | 0.00 | 0.02 | 0.02 | 86 | 1013.1 |
| 20260902220106 | 64 | 39 | 0.0 | 0.0 | 0.00 | 0.02 | 0.02 | 85 | 1013.2 |
| 20260902215036 | 64 | 238 | 0.0 | 0.0 | 0.00 | 0.02 | 0.02 | 85 | 1013.2 |
| 20260902214057 | 64 | 127 | 0.0 | 1.0 | 0.00 | 0.02 | 0.02 | 85 | 1013.1 |
| 20260902213052 | 65 | 33 | 0.0 | 1.0 | 0.00 | 0.02 | 0.02 | 85 | 1013.1 |
| 20260902212058 | 65 | 273 | 0.0 | 2.0 | 0.00 | 0.02 | 0.02 | 85 | 1013.1 |
| 20260902211059 | 65 | 293 | 0.0 | 0.0 | 0.00 | 0.02 | 0.02 | 86 | 1013.0 |
| 20260902210034 | 64 | 265 | 0.0 | 2.0 | 0.00 | 0.02 | 0.02 | 87 | 1013.0 |
| 20260902205057 | 64 | 25 | 0.0 | 1.0 | 0.00 | 0.02 | 0.02 | 88 | 1013.0 |
| 20260902204029 | 64 | 314 | 0.0 | 0.0 | 0.00 | 0.02 | 0.02 | 88 | 1013.0 |
| 20260902203038 | 64 | 354 | 0.0 | 1.0 | 0.00 | 0.02 | 0.02 | 89 | 1013.1 |
| 20260902202046 | 64 | 258 | 0.0 | 0.0 | 0.00 | 0.02 | 0.02 | 89 | 1012.9 |
| 20260902201021 | 64 | 255 | 0.0 | 2.0 | 0.00 | 0.02 | 0.02 | 89 | 1012.8 |